Location: Westminster
(33.3626°N, 96.4619°W)
Time: 22:43:57
(UTC+00:00)

OAO 3 Rocket - Pass Details

Date: 04 July 2022
Orbit: 627 x 681 km, 35.0° (Epoch: 14 August)

Event Time Altitude Azimuth Distance (km) Brightness Sun altitude
Exits shadow 08:42:40 64° 312° (NW) 752 3.4 -25.5°
Maximum altitude 08:43:16 72° 1° (N) 713 3.3 -25.5°
Drops below altitude 10° 08:48:12 10° 86° (E) 2,110 6.3 -24.9°
Sets 08:50:36 0° 88° (E) 3,021 7.1 -24.6°
